Regional Weather Roundup
Issued by NWS

Home | Current Version | Previous Version | Graphics & Text | Print | Product List | Glossary On
Versions: 1 2 3 4 5 6 7 8 9 10 11 12 13 14 15 16 17 18 19 20 21 22 23 24 25 26 27 28 29 30 31 32 33 34 35 36 37 38 39 40 41 42 43 44 45 46 47 48 49 50
000
ASUS43 KBIS 222120
RWRND

NORTH DAKOTA REGIONAL WEATHER ROUNDUP
NATIONAL WEATHER SERVICE BISMARCK ND
400 PM CDT WED OCT 22 2014

NOTE: "FAIR" INDICATES FEW OR NO CLOUDS BELOW 12,000 FEET WITH NO
SIGNIFICANT WEATHER AND/OR OBSTRUCTIONS TO VISIBILITY.


NDZ001>003-009>011-017-222200-
NORTHWEST NORTH DAKOTA

CITY           SKY/WX    TMP DP  RH WIND       PRES   REMARKS
WILLISTON      MOSUNNY   62  41  46 W20       29.80F
MINOT          MOSUNNY   61  40  45 W16G25    29.77R
MINOT AFB      PTSUNNY   62  42  49 W22G29    29.75R
$$

NDZ018>021-031>035-040>046-222200-
SOUTHWEST NORTH DAKOTA

CITY           SKY/WX    TMP DP  RH WIND       PRES   REMARKS
BISMARCK       PTSUNNY   68  40  35 W15       29.84S
DICKINSON      SUNNY     62  35  36 W23G31    29.85S
GARRISON         N/A     64  40  41 W21G29    29.80R
HETTINGER ARPT SUNNY     63  32  31 W23G29    29.92R
$$

NDZ004>008-012>016-024-026-027-054-222200-
NORTHEAST NORTH DAKOTA

CITY           SKY/WX    TMP DP  RH WIND       PRES   REMARKS
GRAND FORKS    CLOUDY    63  48  58 SW18      29.80R
GRND FRKS AFB  LGT RAIN  59  54  82 SW10      29.81R
DEVILS LAKE    CLOUDY    54  46  76 SW9       29.77F
$$

NDZ022-023-025-028>030-036>039-047>053-222200-
SOUTHEAST NORTH DAKOTA

CITY           SKY/WX    TMP DP  RH WIND       PRES   REMARKS
FARGO          CLOUDY    66  50  56 SW17      29.84R
JAMESTOWN      CLOUDY    54  51  90 SW7       29.84R
$$




USA.gov is the U.S. government's official web portal to all federal, state and local government web resources and services.